X

Important NEWS



New Hub Active

Miami is our new hub! Old members can request transfer via hr@dlxairways.net

Thank you very much and have nice flight.


Deluxe Airways.

X

Tours



Hello again, we created one nice test tour for all pilots to attend. also this is ment to be testing of our tour system

Available Tours

If you find some issues please inform us.

Thank you very much and have nice flight.


Deluxe Airways.

 METAR AND TAF INFORMATION
ArrayMETAR FOR KMSY
3557248 4 KMSY 210053Z 35005KT 10SM FEW250 08/00 A3028 RMK AO2 SLP255 T00780000 KMSY 2019-01-21T00:53:00Z 30.0 -90.25 7.8 0.0 350 5 10.0 30.280512 1025.5 TRUE VFR METAR 5.0 KMSY 202353Z 33005KT 10SM FEW002 BKN250 08/01 A3028 RMK AO2 SLP255 FU FEW002 SW T00830006 10106 20061 53011 KMSY 2019-01-20T23:53:00Z 30.0 -90.25 8.3 0.6 330 5 10.0 30.280512 1025.5 TRUE VFR 1.1 10.6 6.1 METAR 5.0 KMSY 202340Z 33006KT 10SM FEW002 BKN250 08/01 A3027 RMK AO2 FU FEW002 SW T00830006 KMSY 2019-01-20T23:40:00Z 30.0 -90.25 8.3 0.6 330 6 10.0 30.268702 TRUE VFR SPECI 5.0

 AIRPORT MAP

 RUNWAY INFORMATION
Runway 01 Runway length 7001 ft Runway width 150 ft
Runway elevation 3 ft Runway displaced threshold 0 ft Runway heading 15
Runway 19 Runway length 7001 ft Runway width 150 ft
Runway elevation 0 ft Runway displaced threshold 0 ft Runway heading 195
Runway 06 Runway length 3570 ft Runway width 150 ft
Runway elevation 2 ft Runway displaced threshold 0 ft Runway heading 60
Runway 24 Runway length 3570 ft Runway width 150 ft
Runway elevation 1 ft Runway displaced threshold 0 ft Runway heading 240
Runway 10 Runway length 10104 ft Runway width 150 ft
Runway elevation 4 ft Runway displaced threshold 0 ft Runway heading 106
Runway 28 Runway length 10104 ft Runway width 150 ft
Runway elevation 2 ft Runway displaced threshold 304 ft Runway heading 286

 AIRPORT FREQUENCIES
Type A/D Name NEW ORLEAN Frequency 123.85 MHZ
Type ATIS Name ATIS Frequency 127.55 MHZ
Type CLD Name CLNC DEL Frequency 127.2 MHZ
Type GND Name GND Frequency 121.9 MHZ
Type TWR Name TWR Frequency 119.5 MHZ
Type UNIC Name UNICOM Frequency 122.95 MHZ

 AIRPORT NEAR NAVIGATION AIDS
Type NDB Name Kinte Frequency 338 KHZ



Powered by Virtual Airlines Manager [v2.6.2]

Template code change by DeluxeAir